Regional Weather Roundup
Issued by NWS Memphis, TN

Home | Current Version | Previous Version | Text Only | Print | Product List | Glossary On
Versions: 1 2 3 4 5 6 7 8 9 10 11 12 13 14 15 16 17 18 19 20 21 22 23 24 25 26 27 28 29 30 31 32 33 34 35 36 37 38 39 40 41 42 43 44 45 46 47 48 49 50
000
ASUS44 KMEG 310600
RWRMEG
MEMPHIS CWA HOURLY WEATHER ROUNDUP
NATIONAL WEATHER SERVICE MEMPHIS TN
100 AM CDT THU JUL 31 2014

...WEST TENNESSEE...

CITY           SKY/WX    TMP DP  RH WIND       PRES   REMARKS
MEMPHIS INTL   LGT RAIN  72  65  78 N5        30.08R
6HR MIN TEMP:  71; 6HR MAX TEMP:  79; 6HR PCP: TRACE;

NWS MEMPHIS      N/A     70 N/A N/A MISG        N/A
JACKSON        CLOUDY    69  65  86 CALM      30.07S
6HR MIN TEMP:  69; 6HR MAX TEMP:  76;

DYERSBURG      CLOUDY    70  57  64 CALM      30.09R
6HR MIN TEMP:  70; 6HR MAX TEMP:  79;

UNION CITY     CLOUDY    64  64 100 CALM      30.07S


...EASTERN ARKANSAS...

CITY           SKY/WX    TMP DP  RH WIND       PRES   REMARKS
JONESBORO      CLOUDY    70  65  84 S3        30.07F
6HR MIN TEMP:  69; 6HR MAX TEMP:  74; 6HR PCP:  0.01;

WEST MEMPHIS   CLOUDY    70  68  93 N3        30.07S
6HR MIN TEMP:  70; 6HR MAX TEMP:  76; 6HR PCP:  0.01;

BATESVILLE     CLOUDY    66  66 100 CALM      30.08S
6HR MIN TEMP:  66; 6HR MAX TEMP:  70; 6HR PCP:  0.01;

WALNUT RIDGE   CLOUDY    70  64  83 CALM      30.06F
6HR MIN TEMP:  70; 6HR MAX TEMP:  73;

BLYTHEVILLE    CLOUDY    71  68  90 N5        30.08R
6HR MIN TEMP:  71; 6HR MAX TEMP:  78; 6HR PCP: TRACE;

STUTTGART      CLOUDY    70  64  83 N5        30.07S
6HR MIN TEMP:  70; 6HR MAX TEMP:  73; 6HR PCP:  0.01;

PINE BLUFF     CLOUDY    69  66  90 N3        30.07R
6HR MIN TEMP:  69; 6HR MAX TEMP:  72; 6HR PCP:  0.01;

MONTICELLO     CLOUDY    70  66  87 CALM      30.06R
6HR MIN TEMP:  69; 6HR MAX TEMP:  73; 6HR PCP:  0.01;



...NORTH MISSISSIPPI...

CITY           SKY/WX    TMP DP  RH WIND       PRES   REMARKS
TUPELO         CLOUDY    72  63  73 N3        30.07R
6HR MIN TEMP:  71; 6HR MAX TEMP:  78;

OLIVE BRANCH   CLOUDY    68  68 100 N6        30.09R
CLARKSDALE     CLOUDY    70  70 100 N3        30.07S
GREENWOOD      CLOUDY    70  68  93 CALM      30.06S
6HR MIN TEMP:  70; 6HR MAX TEMP:  76;

COLUMBUS       CLOUDY    69  64  84 NE3       30.05S
6HR MIN TEMP:  69; 6HR MAX TEMP:  76;

STARKVILLE     FAIR      68  63  83 CALM      30.06S
GOLDEN TRIANGL CLOUDY    70  61  73 CALM      30.06S
6HR MIN TEMP:  70; 6HR MAX TEMP:  79;



...SOUTHEAST MISSOURI...

CITY           SKY/WX    TMP DP  RH WIND       PRES   REMARKS
WEST PLAINS    CLOUDY    66  64  93 CALM      30.10F FOG
6HR MIN TEMP:  65; 6HR MAX TEMP:  68; 6HR PCP:  0.01;

POPLAR BLUFF   MOCLDY    66  62  87 CALM      30.06F
6HR MIN TEMP:  66; 6HR MAX TEMP:  74;

CAPE GIRARDEAU PTCLDY    64  61  90 CALM      30.07S
6HR MIN TEMP:  63; 6HR MAX TEMP:  74;



...NORTHWEST ALABAMA...

CITY           SKY/WX    TMP DP  RH WIND       PRES   REMARKS
MUSCLE SHOALS  CLOUDY    71  63  75 CALM      30.08F
6HR MIN TEMP:  69; 6HR MAX TEMP:  77;



...MIDDLE TENNESSEE...

CITY           SKY/WX    TMP DP  RH WIND       PRES   REMARKS
NASHVILLE      MOCLDY    65  59  81 CALM      30.09F
6HR MIN TEMP:  65; 6HR MAX TEMP:  78;

CLARKSVILLE    PTCLDY    61  58  90 CALM      30.09S
6HR MIN TEMP:  61; 6HR MAX TEMP:  78;



...WESTERN KENTUCKY...

CITY           SKY/WX    TMP DP  RH WIND       PRES   REMARKS
PADUCAH        PTCLDY    63  60  90 CALM      30.07S FOG
6HR MIN TEMP:  63; 6HR MAX TEMP:  75;

FORT CAMPBELL  PTCLDY    63  58  83 SE2       30.09R
6HR MIN TEMP:  62; 6HR MAX TEMP:  77;



...CENTRAL ARKANSAS...

CITY           SKY/WX    TMP DP  RH WIND       PRES   REMARKS
LITTLE ROCK    LGT RAIN  70  64  81 CALM      30.08R
6HR MIN TEMP:  69; 6HR MAX TEMP:  71; 6HR PCP:  0.01;



SKY/WX REPORTED AS FAIR MEANS FEW OR NO CLOUDS BELOW
12 THOUSAND FEET.



USA.gov is the U.S. government's official web portal to all federal, state and local government web resources and services.